Time,TemperatureF,DewpointF,PressureIn,WindDirection,WindDirectionDegrees,WindSpeedMPH,WindSpeedGustMPH,Humidity,HourlyPrecipIn,Conditions,Clouds,dailyrainin,SoftwareType,DateUTC
2013-05-03 00:00:00,52.0,43.0,30.49,SE,135,0.0,0.0,71,0.00,,,0.00,WUHU216HW,2013-05-03 04:00:00,
2013-05-03 00:01:00,52.0,43.0,30.49,SE,135,0.0,0.0,71,0.00,,,0.00,WUHU216HW,2013-05-03 04:01:00,
2013-05-03 00:06:00,51.8,42.5,30.50,SE,135,0.0,0.0,70,0.00,,,0.00,WUHU216HW,2013-05-03 04:06:00,
2013-05-03 00:11:00,51.8,42.5,30.49,SE,135,0.0,0.0,70,0.00,,,0.00,WUHU216HW,2013-05-03 04:11:00,
2013-05-03 00:16:00,51.7,42.7,30.49,SE,135,0.0,0.0,71,0.00,,,0.00,WUHU216HW,2013-05-03 04:16:00,
2013-05-03 00:21:00,51.5,42.5,30.50,SE,135,0.0,0.0,71,0.00,,,0.00,WUHU216HW,2013-05-03 04:21:00,
2013-05-03 00:23:00,51.5,42.5,30.50,SE,135,0.0,0.0,71,0.00,,,0.00,WUHU216HW,2013-05-03 04:23:00,
2013-05-03 00:26:00,51.5,42.5,30.50,SE,135,0.0,0.0,71,0.00,,,0.00,WUHU216HW,2013-05-03 04:26:00,
2013-05-03 00:31:00,51.5,42.5,30.50,SE,135,0.0,0.0,71,0.00,,,0.00,WUHU216HW,2013-05-03 04:31:00,
2013-05-03 00:53:00,50.8,42.1,30.50,SE,135,0.0,0.0,72,0.00,,,0.00,WUHU216HW,2013-05-03 04:53:00,
2013-05-03 00:58:00,50.8,42.1,30.50,SE,135,0.0,0.0,72,0.00,,,0.00,WUHU216HW,2013-05-03 04:58:00,
2013-05-03 01:03:00,50.8,42.1,30.50,SE,135,0.0,0.0,72,0.00,,,0.00,WUHU216HW,2013-05-03 05:03:00,
2013-05-03 01:08:00,50.8,42.1,30.51,SE,135,0.0,0.0,72,0.00,,,0.00,WUHU216HW,2013-05-03 05:08:00,
2013-05-03 01:13:00,50.6,42.2,30.51,ENE,68,0.2,0.2,73,0.00,,,0.00,WUHU216HW,2013-05-03 05:13:00,
2013-05-03 01:18:00,50.6,42.2,30.50,NE,45,0.0,0.2,73,0.00,,,0.00,WUHU216HW,2013-05-03 05:18:00,
2013-05-03 01:23:00,50.6,42.2,30.50,ESE,113,0.2,0.2,73,0.00,,,0.00,WUHU216HW,2013-05-03 05:23:00,
2013-05-03 01:28:00,50.6,42.6,30.51,ENE,68,1.6,1.6,74,0.00,,,0.00,WUHU216HW,2013-05-03 05:28:00,
2013-05-03 01:33:00,50.6,42.6,30.50,ENE,68,0.4,1.6,74,0.00,,,0.00,WUHU216HW,2013-05-03 05:33:00,
2013-05-03 01:38:00,50.8,43.1,30.51,SE,135,2.7,2.7,75,0.00,,,0.00,WUHU216HW,2013-05-03 05:38:00,
2013-05-03 01:43:00,50.8,43.1,30.51,NE,45,0.0,2.7,75,0.00,,,0.00,WUHU216HW,2013-05-03 05:43:00,
2013-05-03 01:48:00,50.8,43.1,30.51,ENE,68,1.1,2.7,75,0.00,,,0.00,WUHU216HW,2013-05-03 05:48:00,
2013-05-03 01:53:00,50.8,43.5,30.51,East,90,2.5,2.5,76,0.00,,,0.00,WUHU216HW,2013-05-03 05:53:00,
2013-05-03 01:58:00,50.9,43.7,30.51,East,90,0.2,2.5,76,0.00,,,0.00,WUHU216HW,2013-05-03 05:58:00,
2013-05-03 02:03:00,51.1,44.2,30.51,East,90,2.5,2.5,77,0.00,,,0.00,WUHU216HW,2013-05-03 06:03:00,
2013-05-03 02:08:00,51.3,44.6,30.51,East,90,1.3,2.5,78,0.00,,,0.00,WUHU216HW,2013-05-03 06:08:00,
2013-05-03 02:13:00,51.5,44.8,30.51,ESE,113,2.0,2.7,78,0.00,,,0.00,WUHU216HW,2013-05-03 06:13:00,
2013-05-03 02:18:00,51.5,44.8,30.51,ENE,68,0.7,2.7,78,0.00,,,0.00,WUHU216HW,2013-05-03 06:18:00,
2013-05-03 02:23:00,51.5,44.8,30.51,ENE,68,1.6,2.7,78,0.00,,,0.00,WUHU216HW,2013-05-03 06:23:00,
2013-05-03 02:28:00,51.5,44.8,30.51,ENE,68,2.2,2.7,78,0.00,,,0.00,WUHU216HW,2013-05-03 06:28:00,
2013-05-03 02:33:00,51.5,44.8,30.51,East,90,1.8,2.5,78,0.00,,,0.00,WUHU216HW,2013-05-03 06:33:00,
2013-05-03 02:38:00,51.3,44.6,30.52,East,90,0.9,2.7,78,0.00,,,0.00,WUHU216HW,2013-05-03 06:38:00,
2013-05-03 02:43:00,51.3,44.6,30.52,ESE,113,0.0,2.7,78,0.00,,,0.00,WUHU216HW,2013-05-03 06:43:00,
2013-05-03 02:48:00,51.3,44.6,30.52,ENE,68,2.9,2.9,78,0.00,,,0.00,WUHU216HW,2013-05-03 06:48:00,
2013-05-03 02:53:00,51.3,44.6,30.52,North,0,4.0,4.0,78,0.00,,,0.00,WUHU216HW,2013-05-03 06:53:00,
2013-05-03 02:58:00,51.3,45.0,30.52,ESE,113,2.0,4.0,79,0.00,,,0.00,WUHU216HW,2013-05-03 06:58:00,
2013-05-03 03:03:00,51.3,45.0,30.52,East,90,3.1,4.5,79,0.00,,,0.00,WUHU216HW,2013-05-03 07:03:00,
2013-05-03 03:08:00,51.5,45.2,30.52,SE,135,3.4,4.7,79,0.00,,,0.00,WUHU216HW,2013-05-03 07:08:00,
2013-05-03 03:13:00,51.3,45.4,30.52,NE,45,0.9,6.3,80,0.00,,,0.00,WUHU216HW,2013-05-03 07:13:00,
2013-05-03 03:18:00,51.3,45.4,30.52,ESE,113,1.3,6.3,80,0.00,,,0.00,WUHU216HW,2013-05-03 07:18:00,
2013-05-03 03:23:00,51.3,45.4,30.52,NNE,23,2.5,2.5,80,0.00,,,0.00,WUHU216HW,2013-05-03 07:23:00,
2013-05-03 03:28:00,51.3,45.4,30.52,East,90,1.8,2.5,80,0.00,,,0.00,WUHU216HW,2013-05-03 07:28:00,
2013-05-03 03:33:00,51.3,45.0,30.53,SE,135,1.6,1.8,79,0.00,,,0.00,WUHU216HW,2013-05-03 07:33:00,
2013-05-03 03:38:00,51.1,45.2,30.53,NE,45,1.8,2.0,80,0.00,,,0.00,WUHU216HW,2013-05-03 07:38:00,
2013-05-03 03:43:00,51.1,45.2,30.53,ENE,68,2.5,5.1,80,0.00,,,0.00,WUHU216HW,2013-05-03 07:43:00,
2013-05-03 03:49:00,50.9,45.0,30.53,ESE,113,1.1,5.1,80,0.00,,,0.00,WUHU216HW,2013-05-03 07:49:00,
2013-05-03 03:54:00,50.9,44.6,30.53,East,90,2.2,2.5,79,0.00,,,0.00,WUHU216HW,2013-05-03 07:54:00,
2013-05-03 04:01:00,50.8,44.8,30.53,NE,45,8.5,8.5,80,0.00,,,0.00,WUHU216HW,2013-05-03 08:01:00,
2013-05-03 04:06:00,50.8,44.8,30.53,North,0,3.4,8.5,80,0.00,,,0.00,WUHU216HW,2013-05-03 08:06:00,
2013-05-03 04:09:00,50.6,44.6,30.53,North,0,3.4,3.4,80,0.00,,,0.00,WUHU216HW,2013-05-03 08:09:00,
2013-05-03 04:11:00,50.6,44.6,30.53,North,0,3.4,8.5,80,0.00,,,0.00,WUHU216HW,2013-05-03 08:11:00,
2013-05-03 04:16:00,50.6,44.6,30.53,North,0,3.4,3.4,80,0.00,,,0.00,WUHU216HW,2013-05-03 08:16:00,
2013-05-03 04:39:00,50.4,44.5,30.53,North,0,4.0,4.0,80,0.00,,,0.00,WUHU216HW,2013-05-03 08:39:00,
2013-05-03 04:44:00,50.6,44.6,30.53,NE,45,0.2,4.7,80,0.00,,,0.00,WUHU216HW,2013-05-03 08:44:00,
2013-05-03 04:49:00,50.6,44.6,30.53,NE,45,5.8,5.8,80,0.00,,,0.00,WUHU216HW,2013-05-03 08:49:00,
2013-05-03 04:54:00,50.6,44.6,30.53,SE,135,2.5,5.8,80,0.00,,,0.00,WUHU216HW,2013-05-03 08:54:00,
2013-05-03 04:59:00,50.6,44.3,30.53,ESE,113,2.0,5.8,79,0.00,,,0.00,WUHU216HW,2013-05-03 08:59:00,
2013-05-03 05:04:00,50.6,44.3,30.53,NNE,23,6.3,7.4,79,0.00,,,0.00,WUHU216HW,2013-05-03 09:04:00,
2013-05-03 05:09:00,50.8,44.5,30.53,NNE,23,2.5,7.4,79,0.00,,,0.00,WUHU216HW,2013-05-03 09:09:00,
2013-05-03 05:14:00,50.8,44.1,30.53,NNE,23,7.6,7.6,78,0.00,,,0.00,WUHU216HW,2013-05-03 09:14:00,
2013-05-03 05:20:00,50.8,44.1,30.54,NNE,23,1.3,7.6,78,0.00,,,0.00,WUHU216HW,2013-05-03 09:20:00,
2013-05-03 05:25:00,50.8,44.1,30.54,NE,45,2.7,7.6,78,0.00,,,0.00,WUHU216HW,2013-05-03 09:25:00,
2013-05-03 05:30:00,50.6,43.9,30.54,NE,45,2.2,3.6,78,0.00,,,0.00,WUHU216HW,2013-05-03 09:30:00,
2013-05-03 05:35:00,50.6,43.9,30.54,NE,45,2.5,2.9,78,0.00,,,0.00,WUHU216HW,2013-05-03 09:35:00,
2013-05-03 05:40:00,50.4,43.7,30.54,East,90,1.8,6.0,78,0.00,,,0.00,WUHU216HW,2013-05-03 09:40:00,
2013-05-03 05:45:00,50.2,43.9,30.54,ESE,113,2.0,7.6,79,0.00,,,0.00,WUHU216HW,2013-05-03 09:45:00,
2013-05-03 05:50:00,50.2,43.6,30.54,NE,45,6.7,7.6,78,0.00,,,0.00,WUHU216HW,2013-05-03 09:50:00,
2013-05-03 05:55:00,50.0,43.4,30.54,SE,135,3.4,6.7,78,0.00,,,0.00,WUHU216HW,2013-05-03 09:55:00,
2013-05-03 06:00:00,50.0,43.4,30.54,East,90,8.9,8.9,78,0.00,,,0.00,WUHU216HW,2013-05-03 10:00:00,
2013-05-03 06:05:00,50.0,43.1,30.54,NE,45,3.1,8.9,77,0.00,,,0.00,WUHU216HW,2013-05-03 10:05:00,
2013-05-03 06:10:00,50.2,42.9,30.55,NNE,23,4.0,8.9,76,0.00,,,0.00,WUHU216HW,2013-05-03 10:10:00,
2013-05-03 06:15:00,50.0,42.8,30.55,ESE,113,2.9,5.4,76,0.00,,,0.00,WUHU216HW,2013-05-03 10:15:00,
2013-05-03 06:20:00,50.2,42.9,30.55,ENE,68,4.3,4.3,76,0.00,,,0.00,WUHU216HW,2013-05-03 10:20:00,
2013-05-03 06:25:00,50.2,42.9,30.55,ESE,113,1.6,6.9,76,0.00,,,0.00,WUHU216HW,2013-05-03 10:25:00,
2013-05-03 06:30:00,50.2,42.9,30.55,ESE,113,5.6,6.9,76,0.00,,,0.00,WUHU216HW,2013-05-03 10:30:00,
2013-05-03 06:35:00,50.2,42.9,30.55,NE,45,5.4,6.9,76,0.00,,,0.00,WUHU216HW,2013-05-03 10:35:00,
2013-05-03 06:40:00,50.4,43.1,30.56,East,90,2.9,6.9,76,0.00,,,0.00,WUHU216HW,2013-05-03 10:40:00,
2013-05-03 06:45:00,50.4,43.1,30.56,ESE,113,4.7,5.4,76,0.00,,,0.00,WUHU216HW,2013-05-03 10:45:00,
2013-05-03 06:50:00,50.4,43.1,30.56,East,90,3.4,4.7,76,0.00,,,0.00,WUHU216HW,2013-05-03 10:50:00,
2013-05-03 06:55:00,50.4,43.1,30.56,NNE,23,4.3,7.6,76,0.00,,,0.00,WUHU216HW,2013-05-03 10:55:00,
2013-05-03 07:00:00,50.6,43.3,30.56,North,0,4.9,7.6,76,0.00,,,0.00,WUHU216HW,2013-05-03 11:00:00,
2013-05-03 07:05:00,50.8,43.5,30.57,East,90,4.5,5.4,76,0.00,,,0.00,WUHU216HW,2013-05-03 11:05:00,
2013-05-03 07:10:00,51.1,43.8,30.57,East,90,7.2,7.2,76,0.00,,,0.00,WUHU216HW,2013-05-03 11:10:00,
2013-05-03 07:15:00,51.3,44.0,30.56,NNE,23,7.6,7.6,76,0.00,,,0.00,WUHU216HW,2013-05-03 11:15:00,
2013-05-03 07:20:00,51.7,44.4,30.57,NNE,23,3.4,7.6,76,0.00,,,0.00,WUHU216HW,2013-05-03 11:20:00,
2013-05-03 07:25:00,52.0,44.7,30.57,ENE,68,7.8,7.8,76,0.00,,,0.00,WUHU216HW,2013-05-03 11:25:00,
2013-05-03 07:30:00,52.2,44.6,30.57,ESE,113,6.3,7.8,75,0.00,,,0.00,WUHU216HW,2013-05-03 11:30:00,
2013-05-03 07:35:00,52.4,44.4,30.57,East,90,2.5,11.4,74,0.00,,,0.00,WUHU216HW,2013-05-03 11:35:00,
2013-05-03 07:40:00,52.2,44.2,30.57,ENE,68,7.2,11.4,74,0.00,,,0.00,WUHU216HW,2013-05-03 11:40:00,
2013-05-03 07:45:00,52.4,44.0,30.58,ESE,113,3.4,7.2,73,0.00,,,0.00,WUHU216HW,2013-05-03 11:45:00,
2013-05-03 07:50:00,52.6,43.8,30.58,NNE,23,3.6,6.9,72,0.00,,,0.00,WUHU216HW,2013-05-03 11:50:00,
2013-05-03 07:55:00,52.6,43.8,30.58,NNW,338,3.8,6.9,72,0.00,,,0.00,WUHU216HW,2013-05-03 11:55:00,
2013-05-03 08:00:00,52.7,44.0,30.58,North,0,9.8,9.8,72,0.00,,,0.00,WUHU216HW,2013-05-03 12:00:00,
2013-05-03 08:05:00,52.7,44.0,30.58,NNE,23,8.1,9.8,72,0.00,,,0.00,WUHU216HW,2013-05-03 12:05:00,
2013-05-03 08:10:00,53.1,44.3,30.58,NE,45,3.4,9.8,72,0.00,,,0.00,WUHU216HW,2013-05-03 12:10:00,
2013-05-03 08:15:00,53.3,44.1,30.57,NNE,23,3.8,9.2,71,0.00,,,0.00,WUHU216HW,2013-05-03 12:15:00,
2013-05-03 08:20:00,53.3,44.1,30.57,East,90,4.3,9.2,71,0.00,,,0.00,WUHU216HW,2013-05-03 12:20:00,
2013-05-03 08:25:00,53.6,44.5,30.58,East,90,2.0,4.7,71,0.00,,,0.00,WUHU216HW,2013-05-03 12:25:00,
2013-05-03 08:30:00,54.2,44.6,30.58,SE,135,7.6,7.6,70,0.00,,,0.00,WUHU216HW,2013-05-03 12:30:00,
2013-05-03 08:35:00,54.2,44.6,30.58,NE,45,11.4,11.4,70,0.00,,,0.00,WUHU216HW,2013-05-03 12:35:00,
2013-05-03 08:40:00,54.2,44.3,30.58,ESE,113,6.9,11.4,69,0.00,,,0.00,WUHU216HW,2013-05-03 12:40:00,
2013-05-03 08:45:00,54.0,44.1,30.58,ENE,68,1.6,11.4,69,0.00,,,0.00,WUHU216HW,2013-05-03 12:45:00,
2013-05-03 08:50:00,54.2,44.3,30.58,SE,135,4.9,10.3,69,0.00,,,0.00,WUHU216HW,2013-05-03 12:50:00,
2013-05-03 08:55:00,54.4,44.5,30.58,ENE,68,3.1,10.3,69,0.00,,,0.00,WUHU216HW,2013-05-03 12:55:00,
2013-05-03 09:00:00,54.4,44.5,30.58,NNE,23,2.7,10.5,69,0.00,,,0.00,WUHU216HW,2013-05-03 13:00:00,
2013-05-03 09:05:00,54.5,44.6,30.59,SE,135,5.1,10.5,69,0.00,,,0.00,WUHU216HW,2013-05-03 13:05:00,
2013-05-03 09:10:00,54.7,44.7,30.59,East,90,5.8,8.5,69,0.00,,,0.00,WUHU216HW,2013-05-03 13:10:00,
2013-05-03 09:15:00,55.1,44.7,30.59,East,90,5.4,6.7,68,0.00,,,0.00,WUHU216HW,2013-05-03 13:15:00,
2013-05-03 09:20:00,54.9,44.6,30.59,SE,135,5.4,6.7,68,0.00,,,0.00,WUHU216HW,2013-05-03 13:20:00,
2013-05-03 09:25:00,55.1,44.7,30.59,NNE,23,10.5,10.5,68,0.00,,,0.00,WUHU216HW,2013-05-03 13:25:00,
2013-05-03 09:30:00,55.1,44.7,30.59,ENE,68,4.5,10.5,68,0.00,,,0.00,WUHU216HW,2013-05-03 13:30:00,
2013-05-03 09:35:00,55.1,44.3,30.59,NNE,23,3.8,10.5,67,0.00,,,0.00,WUHU216HW,2013-05-03 13:35:00,
2013-05-03 09:40:00,55.3,44.5,30.59,ESE,113,6.3,6.9,67,0.00,,,0.00,WUHU216HW,2013-05-03 13:40:00,
2013-05-03 09:45:00,55.3,44.5,30.59,ESE,113,6.3,6.3,67,0.00,,,0.00,WUHU216HW,2013-05-03 13:45:00,
2013-05-03 10:00:00,55.6,44.4,30.59,SW,225,3.8,3.8,66,0.00,,,0.00,WUHU216HW,2013-05-03 14:00:00,
2013-05-03 10:05:00,55.8,44.2,30.59,East,90,8.5,8.5,65,0.00,,,0.00,WUHU216HW,2013-05-03 14:05:00,
2013-05-03 10:10:00,55.8,43.7,30.59,NNE,23,6.3,8.5,64,0.00,,,0.00,WUHU216HW,2013-05-03 14:10:00,
2013-05-03 10:15:00,55.8,43.7,30.59,NE,45,3.1,7.6,64,0.00,,,0.00,WUHU216HW,2013-05-03 14:15:00,
2013-05-03 10:20:00,56.0,43.9,30.59,North,0,5.4,6.3,64,0.00,,,0.00,WUHU216HW,2013-05-03 14:20:00,
2013-05-03 10:25:00,56.2,44.1,30.59,NNE,23,6.9,6.9,64,0.00,,,0.00,WUHU216HW,2013-05-03 14:25:00,
2013-05-03 10:30:00,56.3,44.3,30.59,ESE,113,6.3,6.9,64,0.00,,,0.00,WUHU216HW,2013-05-03 14:30:00,
2013-05-03 10:35:00,56.5,44.5,30.59,NE,45,7.4,7.4,64,0.00,,,0.00,WUHU216HW,2013-05-03 14:35:00,
2013-05-03 10:40:00,56.5,44.0,30.59,NE,45,4.5,7.4,63,0.00,,,0.00,WUHU216HW,2013-05-03 14:40:00,
2013-05-03 10:45:00,56.7,43.8,30.59,ESE,113,7.6,7.6,62,0.00,,,0.00,WUHU216HW,2013-05-03 14:45:00,
2013-05-03 10:50:00,56.5,43.2,30.60,NNE,23,9.8,9.8,61,0.00,,,0.00,WUHU216HW,2013-05-03 14:50:00,
2013-05-03 10:55:00,56.3,43.0,30.60,ENE,68,9.8,10.1,61,0.00,,,0.00,WUHU216HW,2013-05-03 14:55:00,
2013-05-03 11:00:00,56.2,43.3,30.59,NNE,23,7.6,10.1,62,0.00,,,0.00,WUHU216HW,2013-05-03 15:00:00,
2013-05-03 11:05:00,56.5,43.7,30.59,ESE,113,5.4,9.8,62,0.00,,,0.00,WUHU216HW,2013-05-03 15:05:00,
2013-05-03 11:10:00,56.7,43.8,30.60,East,90,4.0,7.6,62,0.00,,,0.00,WUHU216HW,2013-05-03 15:10:00,
2013-05-03 11:15:00,57.1,44.2,30.59,ENE,68,2.5,5.1,62,0.00,,,0.00,WUHU216HW,2013-05-03 15:15:00,
2013-05-03 11:20:00,57.1,44.2,30.59,NE,45,2.7,5.1,62,0.00,,,0.00,WUHU216HW,2013-05-03 15:20:00,
2013-05-03 11:25:00,57.2,44.4,30.59,North,0,8.5,8.5,62,0.00,,,0.00,WUHU216HW,2013-05-03 15:25:00,
2013-05-03 11:30:00,57.2,44.4,30.59,NE,45,4.0,8.5,62,0.00,,,0.00,WUHU216HW,2013-05-03 15:30:00,
2013-05-03 11:35:00,57.8,44.5,30.59,NNE,23,2.5,5.1,61,0.00,,,0.00,WUHU216HW,2013-05-03 15:35:00,
2013-05-03 11:40:00,58.0,44.7,30.59,East,90,4.7,10.1,61,0.00,,,0.00,WUHU216HW,2013-05-03 15:40:00,
2013-05-03 11:45:00,58.0,44.7,30.59,North,0,10.3,10.3,61,0.00,,,0.00,WUHU216HW,2013-05-03 15:45:00,
2013-05-03 11:50:00,58.1,44.4,30.59,North,0,2.0,10.3,60,0.00,,,0.00,WUHU216HW,2013-05-03 15:50:00,
2013-05-03 11:55:00,58.7,44.8,30.59,East,90,4.0,6.0,60,0.00,,,0.00,WUHU216HW,2013-05-03 15:55:00,
2013-05-03 12:00:00,58.7,44.4,30.59,NE,45,6.0,6.0,59,0.00,,,0.00,WUHU216HW,2013-05-03 16:00:00,
2013-05-03 12:05:00,58.9,44.6,30.59,North,0,3.6,6.0,59,0.00,,,0.00,WUHU216HW,2013-05-03 16:05:00,
2013-05-03 12:10:00,59.0,45.2,30.59,ENE,68,2.0,7.4,60,0.00,,,0.00,WUHU216HW,2013-05-03 16:10:00,
2013-05-03 12:15:00,59.2,45.4,30.59,NE,45,3.6,7.4,60,0.00,,,0.00,WUHU216HW,2013-05-03 16:15:00,
2013-05-03 12:20:00,58.9,44.6,30.59,NE,45,2.2,4.0,59,0.00,,,0.00,WUHU216HW,2013-05-03 16:20:00,
2013-05-03 12:25:00,59.2,45.8,30.58,North,0,1.8,3.6,61,0.00,,,0.00,WUHU216HW,2013-05-03 16:25:00,
2013-05-03 12:30:00,59.9,46.1,30.58,ENE,68,2.9,3.8,60,0.00,,,0.00,WUHU216HW,2013-05-03 16:30:00,
2013-05-03 12:35:00,59.9,46.1,30.58,ESE,113,5.8,5.8,60,0.00,,,0.00,WUHU216HW,2013-05-03 16:35:00,
2013-05-03 12:40:00,60.1,46.3,30.58,NE,45,2.2,9.4,60,0.00,,,0.00,WUHU216HW,2013-05-03 16:40:00,
2013-05-03 12:45:00,61.0,46.6,30.58,NNE,23,3.4,9.4,59,0.00,,,0.00,WUHU216HW,2013-05-03 16:45:00,
2013-05-03 12:50:00,61.6,46.6,30.58,East,90,5.4,5.4,58,0.00,,,0.00,WUHU216HW,2013-05-03 16:50:00,
2013-05-03 12:55:00,61.9,47.0,30.58,SSE,158,2.9,5.4,58,0.00,,,0.00,WUHU216HW,2013-05-03 16:55:00,
2013-05-03 13:00:00,62.3,46.8,30.57,North,0,4.0,5.4,57,0.00,,,0.00,WUHU216HW,2013-05-03 17:00:00,
2013-05-03 13:05:00,62.3,45.8,30.57,NE,45,2.5,4.5,55,0.00,,,0.00,WUHU216HW,2013-05-03 17:05:00,
2013-05-03 13:10:00,62.5,46.0,30.57,East,90,3.8,4.5,55,0.00,,,0.00,WUHU216HW,2013-05-03 17:10:00,
2013-05-03 13:15:00,62.5,45.6,30.57,ESE,113,2.2,3.8,54,0.00,,,0.00,WUHU216HW,2013-05-03 17:15:00,
2013-05-03 13:20:00,62.3,45.4,30.57,NE,45,2.9,3.4,54,0.00,,,0.00,WUHU216HW,2013-05-03 17:20:00,
2013-05-03 13:25:00,62.3,45.4,30.57,ENE,68,2.5,3.4,54,0.00,,,0.00,WUHU216HW,2013-05-03 17:25:00,
2013-05-03 13:30:00,62.3,45.4,30.57,NNE,23,5.4,5.4,54,0.00,,,0.00,WUHU216HW,2013-05-03 17:30:00,
2013-05-03 13:35:00,62.3,44.9,30.57,WNW,293,1.3,5.4,53,0.00,,,0.00,WUHU216HW,2013-05-03 17:35:00,
2013-05-03 13:40:00,62.3,44.9,30.57,SSE,158,4.5,4.5,53,0.00,,,0.00,WUHU216HW,2013-05-03 17:40:00,
2013-05-03 13:45:00,62.3,44.4,30.57,ESE,113,2.9,4.5,52,0.00,,,0.00,WUHU216HW,2013-05-03 17:45:00,
2013-05-03 13:50:00,62.3,44.9,30.57,ENE,68,2.5,4.0,53,0.00,,,0.00,WUHU216HW,2013-05-03 17:50:00,
2013-05-03 13:55:00,62.3,44.9,30.57,NE,45,4.3,4.3,53,0.00,,,0.00,WUHU216HW,2013-05-03 17:55:00,
2013-05-03 14:00:00,62.6,45.2,30.57,SE,135,4.0,4.3,53,0.00,,,0.00,WUHU216HW,2013-05-03 18:00:00,
2013-05-03 14:05:00,62.8,45.4,30.57,ESE,113,3.4,4.3,53,0.00,,,0.00,WUHU216HW,2013-05-03 18:05:00,
2013-05-03 14:10:00,62.8,45.4,30.57,ESE,113,3.4,4.3,53,0.00,,,0.00,WUHU216HW,2013-05-03 18:10:00,
2013-05-03 14:15:00,62.8,44.9,30.57,ESE,113,1.1,4.0,52,0.00,,,0.00,WUHU216HW,2013-05-03 18:15:00,
2013-05-03 14:20:00,62.8,44.9,30.57,ESE,113,2.0,3.4,52,0.00,,,0.00,WUHU216HW,2013-05-03 18:20:00,
2013-05-03 14:25:00,62.8,44.9,30.57,SE,135,5.1,5.1,52,0.00,,,0.00,WUHU216HW,2013-05-03 18:25:00,
2013-05-03 14:30:00,62.6,44.2,30.56,ENE,68,2.7,5.1,51,0.00,,,0.00,WUHU216HW,2013-05-03 18:30:00,
2013-05-03 14:35:00,62.6,44.7,30.56,ESE,113,4.3,4.3,52,0.00,,,0.00,WUHU216HW,2013-05-03 18:35:00,
2013-05-03 14:40:00,62.5,43.6,30.56,ESE,113,2.0,5.4,50,0.00,,,0.00,WUHU216HW,2013-05-03 18:40:00,
2013-05-03 14:45:00,62.3,43.9,30.56,SE,135,2.2,5.4,51,0.00,,,0.00,WUHU216HW,2013-05-03 18:45:00,
2013-05-03 14:50:00,62.5,44.6,30.56,SE,135,5.6,5.6,52,0.00,,,0.00,WUHU216HW,2013-05-03 18:50:00,
2013-05-03 14:55:00,62.6,44.7,30.56,SE,135,3.4,5.6,52,0.00,,,0.00,WUHU216HW,2013-05-03 18:55:00,
2013-05-03 15:00:00,63.0,44.6,30.56,SE,135,3.6,5.4,51,0.00,,,0.00,WUHU216HW,2013-05-03 19:00:00,
2013-05-03 15:05:00,63.4,44.4,30.56,SE,135,2.7,5.4,50,0.00,,,0.00,WUHU216HW,2013-05-03 19:05:00,
2013-05-03 15:10:00,63.4,44.4,30.56,South,180,3.4,5.1,50,0.00,,,0.00,WUHU216HW,2013-05-03 19:10:00,
2013-05-03 15:15:00,63.4,44.9,30.55,NE,45,2.7,5.1,51,0.00,,,0.00,WUHU216HW,2013-05-03 19:15:00,
2013-05-03 15:20:00,63.4,44.9,30.55,SE,135,3.6,3.8,51,0.00,,,0.00,WUHU216HW,2013-05-03 19:20:00,
2013-05-03 15:25:00,63.7,45.7,30.55,ENE,68,2.7,3.8,52,0.00,,,0.00,WUHU216HW,2013-05-03 19:25:00,
2013-05-03 15:30:00,64.1,45.6,30.55,SSW,203,2.2,3.1,51,0.00,,,0.00,WUHU216HW,2013-05-03 19:30:00,
2013-05-03 15:35:00,64.3,46.2,30.54,SE,135,4.9,4.9,52,0.00,,,0.00,WUHU216HW,2013-05-03 19:35:00,
2013-05-03 15:40:00,64.8,46.7,30.54,East,90,3.6,4.9,52,0.00,,,0.00,WUHU216HW,2013-05-03 19:40:00,
2013-05-03 15:45:00,65.2,46.5,30.54,SSE,158,2.7,5.4,51,0.00,,,0.00,WUHU216HW,2013-05-03 19:45:00,
2013-05-03 15:50:00,65.5,46.9,30.54,SE,135,1.8,5.4,51,0.00,,,0.00,WUHU216HW,2013-05-03 19:50:00,
2013-05-03 15:55:00,65.2,46.5,30.54,NE,45,4.0,4.0,51,0.00,,,0.00,WUHU216HW,2013-05-03 19:55:00,
2013-05-03 16:00:00,64.6,46.0,30.53,SE,135,2.5,4.0,51,0.00,,,0.00,WUHU216HW,2013-05-03 20:00:00,
2013-05-03 16:05:00,63.9,45.4,30.53,ENE,68,1.3,4.0,51,0.00,,,0.00,WUHU216HW,2013-05-03 20:05:00,
2013-05-03 16:10:00,64.4,46.4,30.53,East,90,1.3,2.5,52,0.00,,,0.00,WUHU216HW,2013-05-03 20:10:00,
2013-05-03 16:15:00,64.4,45.8,30.53,SSE,158,4.5,4.5,51,0.00,,,0.00,WUHU216HW,2013-05-03 20:15:00,
2013-05-03 16:20:00,64.4,46.4,30.53,SE,135,3.4,4.5,52,0.00,,,0.00,WUHU216HW,2013-05-03 20:20:00,
2013-05-03 16:25:00,64.4,46.4,30.53,South,180,2.2,4.5,52,0.00,,,0.00,WUHU216HW,2013-05-03 20:25:00,
2013-05-03 16:30:00,64.4,46.4,30.53,SE,135,1.8,3.4,52,0.00,,,0.00,WUHU216HW,2013-05-03 20:30:00,
2013-05-03 16:35:00,63.9,45.8,30.53,SSW,203,2.5,3.4,52,0.00,,,0.00,WUHU216HW,2013-05-03 20:35:00,
2013-05-03 16:40:00,64.1,46.0,30.52,ESE,113,3.4,3.4,52,0.00,,,0.00,WUHU216HW,2013-05-03 20:40:00,
2013-05-03 16:45:00,64.6,46.5,30.53,SE,135,5.4,5.4,52,0.00,,,0.00,WUHU216HW,2013-05-03 20:45:00,
2013-05-03 16:50:00,64.4,46.4,30.52,ESE,113,2.0,5.4,52,0.00,,,0.00,WUHU216HW,2013-05-03 20:50:00,
2013-05-03 16:55:00,64.8,46.7,30.53,ESE,113,1.6,5.4,52,0.00,,,0.00,WUHU216HW,2013-05-03 20:55:00,
2013-05-03 17:00:00,65.0,46.9,30.53,East,90,2.5,2.7,52,0.00,,,0.00,WUHU216HW,2013-05-03 21:00:00,
2013-05-03 17:05:00,65.2,47.1,30.53,SSW,203,4.7,4.7,52,0.00,,,0.00,WUHU216HW,2013-05-03 21:05:00,
2013-05-03 17:10:00,65.9,47.8,30.53,ESE,113,4.0,4.7,52,0.00,,,0.00,WUHU216HW,2013-05-03 21:10:00,
2013-05-03 17:15:00,65.9,47.3,30.53,ESE,113,2.7,4.7,51,0.00,,,0.00,WUHU216HW,2013-05-03 21:15:00,
2013-05-03 17:20:00,65.2,46.5,30.53,SE,135,1.3,4.0,51,0.00,,,0.00,WUHU216HW,2013-05-03 21:20:00,
2013-05-03 17:25:00,64.6,46.5,30.53,East,90,1.1,1.3,52,0.00,,,0.00,WUHU216HW,2013-05-03 21:25:00,
2013-05-03 17:30:00,64.1,46.0,30.53,SE,135,1.8,4.3,52,0.00,,,0.00,WUHU216HW,2013-05-03 21:30:00,
2013-05-03 17:35:00,63.7,46.2,30.52,West,270,2.0,4.3,53,0.00,,,0.00,WUHU216HW,2013-05-03 21:35:00,
2013-05-03 17:40:00,63.4,45.8,30.52,ESE,113,2.2,3.1,53,0.00,,,0.00,WUHU216HW,2013-05-03 21:40:00,
2013-05-03 17:45:00,63.4,46.4,30.52,NE,45,2.5,3.1,54,0.00,,,0.00,WUHU216HW,2013-05-03 21:45:00,
2013-05-03 17:51:00,63.2,46.2,30.53,SE,135,3.6,3.6,54,0.00,,,0.00,WUHU216HW,2013-05-03 21:51:00,
2013-05-03 17:56:00,63.5,46.5,30.52,East,90,2.5,3.8,54,0.00,,,0.00,WUHU216HW,2013-05-03 21:56:00,
2013-05-03 18:01:00,63.2,46.2,30.52,East,90,1.3,8.1,54,0.00,,,0.00,WUHU216HW,2013-05-03 22:01:00,
2013-05-03 18:06:00,63.0,46.0,30.52,SE,135,3.6,8.1,54,0.00,,,0.00,WUHU216HW,2013-05-03 22:06:00,
2013-05-03 18:11:00,63.0,46.0,30.52,ESE,113,2.7,4.0,54,0.00,,,0.00,WUHU216HW,2013-05-03 22:11:00,
2013-05-03 18:16:00,63.2,46.6,30.52,NE,45,2.2,4.0,55,0.00,,,0.00,WUHU216HW,2013-05-03 22:16:00,
2013-05-03 18:21:00,64.3,47.2,30.52,North,0,2.5,2.7,54,0.00,,,0.00,WUHU216HW,2013-05-03 22:21:00,
2013-05-03 18:26:00,65.9,48.8,30.52,ENE,68,2.5,6.0,54,0.00,,,0.00,WUHU216HW,2013-05-03 22:26:00,
2013-05-03 18:31:00,67.0,48.8,30.52,SSE,158,2.0,6.0,52,0.00,,,0.00,WUHU216HW,2013-05-03 22:31:00,
2013-05-03 18:36:00,67.0,48.3,30.52,ESE,113,1.1,3.8,51,0.00,,,0.00,WUHU216HW,2013-05-03 22:36:00,
2013-05-03 18:41:00,64.6,46.0,30.52,SE,135,0.9,3.8,51,0.00,,,0.00,WUHU216HW,2013-05-03 22:41:00,
2013-05-03 18:46:00,63.7,46.2,30.52,ESE,113,4.0,4.0,53,0.00,,,0.00,WUHU216HW,2013-05-03 22:46:00,
2013-05-03 18:51:00,63.4,45.8,30.52,East,90,2.2,4.0,53,0.00,,,0.00,WUHU216HW,2013-05-03 22:51:00,
2013-05-03 18:56:00,63.4,45.8,30.52,East,90,2.2,4.0,53,0.00,,,0.00,WUHU216HW,2013-05-03 22:56:00,
2013-05-03 19:01:00,61.9,45.6,30.53,ESE,113,1.6,2.2,55,0.00,,,0.00,WUHU216HW,2013-05-03 23:01:00,
2013-05-03 19:06:00,61.9,45.6,30.53,SE,135,0.4,2.2,55,0.00,,,0.00,WUHU216HW,2013-05-03 23:06:00,
2013-05-03 19:11:00,61.7,45.8,30.53,ESE,113,1.3,2.2,56,0.00,,,0.00,WUHU216HW,2013-05-03 23:11:00,
2013-05-03 19:17:00,61.6,45.7,30.53,SE,135,1.8,2.2,56,0.00,,,0.00,WUHU216HW,2013-05-03 23:17:00,
2013-05-03 19:22:00,60.5,45.2,30.52,SSE,158,0.4,3.4,57,0.00,,,0.00,WUHU216HW,2013-05-03 23:22:00,
2013-05-03 19:27:00,59.6,44.3,30.52,SE,135,2.0,3.4,57,0.00,,,0.00,WUHU216HW,2013-05-03 23:27:00,
2013-05-03 19:32:00,58.9,44.1,30.52,SE,135,2.0,3.1,58,0.00,,,0.00,WUHU216HW,2013-05-03 23:32:00,
2013-05-03 19:37:00,57.6,42.9,30.52,SE,135,0.4,3.1,58,0.00,,,0.00,WUHU216HW,2013-05-03 23:37:00,
2013-05-03 19:42:00,57.2,43.1,30.52,SE,135,2.9,2.9,59,0.00,,,0.00,WUHU216HW,2013-05-03 23:42:00,
2013-05-03 19:47:00,56.5,42.8,30.52,SE,135,1.8,2.9,60,0.00,,,0.00,WUHU216HW,2013-05-03 23:47:00,
2013-05-03 19:52:00,56.0,42.8,30.52,SE,135,3.4,3.4,61,0.00,,,0.00,WUHU216HW,2013-05-03 23:52:00,
2013-05-03 19:57:00,55.3,42.4,30.52,SE,135,2.0,3.4,62,0.00,,,0.00,WUHU216HW,2013-05-03 23:57:00,
2013-05-03 20:02:00,54.9,42.1,30.52,ESE,113,0.0,2.2,62,0.00,,,0.00,WUHU216HW,2013-05-04 00:02:00,
2013-05-03 20:08:00,54.4,42.4,30.52,ESE,113,1.8,2.0,64,0.00,,,0.00,WUHU216HW,2013-05-04 00:08:00,
2013-05-03 20:13:00,54.0,42.0,30.52,SE,135,0.9,1.8,64,0.00,,,0.00,WUHU216HW,2013-05-04 00:13:00,
2013-05-03 20:21:00,53.5,41.9,30.52,SSE,158,2.9,2.9,65,0.00,,,0.00,WUHU216HW,2013-05-04 00:21:00,
2013-05-03 20:26:00,53.3,42.2,30.52,SSE,158,1.3,2.9,66,0.00,,,0.00,WUHU216HW,2013-05-04 00:26:00,
2013-05-03 20:31:00,52.9,42.2,30.52,SE,135,0.4,2.7,67,0.00,,,0.00,WUHU216HW,2013-05-04 00:31:00,
2013-05-03 20:36:00,52.9,42.2,30.52,SE,135,0.7,2.0,67,0.00,,,0.00,WUHU216HW,2013-05-04 00:36:00,
2013-05-03 20:41:00,52.6,42.3,30.52,SE,135,1.3,1.3,68,0.00,,,0.00,WUHU216HW,2013-05-04 00:41:00,
2013-05-03 20:46:00,52.4,42.1,30.52,SE,135,0.4,2.7,68,0.00,,,0.00,WUHU216HW,2013-05-04 00:46:00,
2013-05-03 20:51:00,52.2,42.4,30.53,SSE,158,1.1,2.7,69,0.00,,,0.00,WUHU216HW,2013-05-04 00:51:00,
2013-05-03 20:56:00,52.0,42.2,30.53,SSE,158,0.4,1.1,69,0.00,,,0.00,WUHU216HW,2013-05-04 00:56:00,
2013-05-03 21:01:00,52.0,42.2,30.53,SE,135,1.8,1.8,69,0.00,,,0.00,WUHU216HW,2013-05-04 01:01:00,
2013-05-03 21:06:00,51.8,42.0,30.53,SSE,158,0.2,2.0,69,0.00,,,0.00,WUHU216HW,2013-05-04 01:06:00,
2013-05-03 21:11:00,51.7,41.9,30.53,SSE,158,0.0,2.0,69,0.00,,,0.00,WUHU216HW,2013-05-04 01:11:00,
2013-05-03 21:16:00,51.7,42.3,30.53,SSE,158,0.0,0.7,70,0.00,,,0.00,WUHU216HW,2013-05-04 01:16:00,
2013-05-03 21:21:00,51.5,42.1,30.53,SSE,158,0.0,0.7,70,0.00,,,0.00,WUHU216HW,2013-05-04 01:21:00,
2013-05-03 21:26:00,51.5,42.1,30.53,SSE,158,0.4,0.4,70,0.00,,,0.00,WUHU216HW,2013-05-04 01:26:00,
2013-05-03 21:31:00,51.3,42.3,30.52,SSE,158,1.1,1.3,71,0.00,,,0.00,WUHU216HW,2013-05-04 01:31:00,
2013-05-03 21:36:00,51.3,42.3,30.52,SE,135,1.1,1.3,71,0.00,,,0.00,WUHU216HW,2013-05-04 01:36:00,
2013-05-03 21:41:00,51.1,42.1,30.52,ESE,113,1.1,1.3,71,0.00,,,0.00,WUHU216HW,2013-05-04 01:41:00,
2013-05-03 21:46:00,50.9,42.3,30.53,SE,135,0.0,1.1,72,0.00,,,0.00,WUHU216HW,2013-05-04 01:46:00,
2013-05-03 21:51:00,50.9,42.3,30.53,SE,135,0.9,1.1,72,0.00,,,0.00,WUHU216HW,2013-05-04 01:51:00,
2013-05-03 21:56:00,50.9,42.3,30.53,East,90,0.4,2.0,72,0.00,,,0.00,WUHU216HW,2013-05-04 01:56:00,
2013-05-03 22:01:00,50.9,42.6,30.52,East,90,0.9,2.5,73,0.00,,,0.00,WUHU216HW,2013-05-04 02:01:00,
2013-05-03 22:06:00,50.9,42.6,30.52,ESE,113,0.7,2.5,73,0.00,,,0.00,WUHU216HW,2013-05-04 02:06:00,
2013-05-03 22:11:00,50.9,42.6,30.52,SE,135,1.1,1.6,73,0.00,,,0.00,WUHU216HW,2013-05-04 02:11:00,
2013-05-03 22:16:00,50.8,42.4,30.52,SE,135,1.6,1.6,73,0.00,,,0.00,WUHU216HW,2013-05-04 02:16:00,
2013-05-03 22:21:00,50.8,42.8,30.52,ENE,68,0.2,1.6,74,0.00,,,0.00,WUHU216HW,2013-05-04 02:21:00,
2013-05-03 22:26:00,50.8,42.8,30.52,ENE,68,0.4,1.6,74,0.00,,,0.00,WUHU216HW,2013-05-04 02:26:00,
2013-05-03 22:31:00,50.8,42.8,30.52,SE,135,0.4,1.6,74,0.00,,,0.00,WUHU216HW,2013-05-04 02:31:00,
2013-05-03 22:36:00,50.8,42.8,30.52,SSE,158,0.7,1.3,74,0.00,,,0.00,WUHU216HW,2013-05-04 02:36:00,
2013-05-03 22:41:00,50.8,43.1,30.52,ESE,113,1.3,1.3,75,0.00,,,0.00,WUHU216HW,2013-05-04 02:41:00,
2013-05-03 22:46:00,50.8,43.1,30.52,ESE,113,0.7,1.3,75,0.00,,,0.00,WUHU216HW,2013-05-04 02:46:00,
2013-05-03 22:51:00,50.9,43.3,30.51,ENE,68,0.2,1.3,75,0.00,,,0.00,WUHU216HW,2013-05-04 02:51:00,
2013-05-03 22:56:00,50.9,43.3,30.51,East,90,1.1,1.1,75,0.00,,,0.00,WUHU216HW,2013-05-04 02:56:00,
2013-05-03 23:01:00,50.8,43.1,30.51,NE,45,2.5,2.5,75,0.00,,,0.00,WUHU216HW,2013-05-04 03:01:00,
2013-05-03 23:07:00,50.9,43.3,30.51,NE,45,1.8,2.5,75,0.00,,,0.00,WUHU216HW,2013-05-04 03:07:00,
2013-05-03 23:12:00,50.8,43.5,30.51,SE,135,0.4,1.8,76,0.00,,,0.00,WUHU216HW,2013-05-04 03:12:00,
2013-05-03 23:17:00,50.8,43.5,30.51,ENE,68,0.2,0.9,76,0.00,,,0.00,WUHU216HW,2013-05-04 03:17:00,
2013-05-03 23:22:00,50.8,43.5,30.51,SE,135,0.4,0.7,76,0.00,,,0.00,WUHU216HW,2013-05-04 03:22:00,
2013-05-03 23:27:00,50.8,43.5,30.51,NE,45,0.7,0.7,76,0.00,,,0.00,WUHU216HW,2013-05-04 03:27:00,
2013-05-03 23:32:00,50.4,43.1,30.51,ENE,68,0.2,1.1,76,0.00,,,0.00,WUHU216HW,2013-05-04 03:32:00,
2013-05-03 23:37:00,50.4,43.1,30.51,ENE,68,0.7,1.1,76,0.00,,,0.00,WUHU216HW,2013-05-04 03:37:00,
2013-05-03 23:42:00,50.2,42.9,30.50,NE,45,0.7,0.7,76,0.00,,,0.00,WUHU216HW,2013-05-04 03:42:00,
2013-05-03 23:47:00,50.0,43.1,30.50,NNE,23,0.0,0.9,77,0.00,,,0.00,WUHU216HW,2013-05-04 03:47:00,
2013-05-03 23:52:00,50.0,43.1,30.50,SE,135,0.0,0.9,77,0.00,,,0.00,WUHU216HW,2013-05-04 03:52:00,
2013-05-03 23:57:00,50.0,43.1,30.50,SE,135,0.0,0.9,77,0.00,,,0.00,WUHU216HW,2013-05-04 03:57:00,